Location: Antioch Baptist Church
(32.6696°N, 85.7327°W)
Time: 12:08:20
(UTC+00:00)

SL-27 R/B - Pass Details

Date: 14 July 2020
Orbit: 420 x 470 km, 74.7° (Epoch: 08 August)

Event Time Altitude Azimuth Distance (km) Brightness Sun altitude
Exits shadow 08:35:05 33° 113° (ESE) 782 3.7 -22.8°
Maximum altitude 08:35:22 34° 102° (ESE) 772 3.8 -22.7°
Drops below altitude 10° 08:38:32 10° 36° (NE) 1,583 6.3 -22.3°
Sets 08:40:43 0° 27° (NNE) 2,449 7.4 -22.0°
